Date String (YYYY-MM-DD hh:mm:ss) UTC,Instrument flags,Ambient pressure (hPa),Sample flow (lpm),Bypass flow (lpm),Sample temperature (°C),Ambient temperature (°C),ASC tube jacket temperature (°C),LED temperature (°C),Box temperature (°C),Sample RH (%),Span deviation,Mass concentration (μg/m³),Mass concentration (μg/m³),Mass concentration (μg/m³)
DateTimeUTC,F1_M11,P_M11,Q1_M11,Q2_M11,T1_M11,T2_M11,T3_M11,T4_M11,T5_M11,U1_M11,ZSPAN_M11,X0_M11,X2_M11,X1_M11
2022-02-13 12:00:00,,0830.7,5.01,0.00,22.2,21.4,00.0,31.3,23.9,08.3,0000.0,0008.25,0003.73,0003.33
2022-02-13 12:01:00,,0830.7,4.99,0.00,22.3,21.7,00.0,31.3,24.0,08.3,0000.0,0007.93,0003.73,0003.31
2022-02-13 12:02:00,,0830.8,5.00,0.00,22.4,22.5,00.0,31.3,24.2,08.3,0000.0,0007.76,0003.69,0003.27
2022-02-13 12:03:00,,0830.8,5.01,0.00,22.5,23.1,00.0,31.4,24.4,08.2,0000.0,0007.82,0003.69,0003.25
2022-02-13 12:04:00,,0830.9,5.01,0.00,22.6,23.0,00.0,31.4,24.5,08.1,0000.0,0006.97,0003.65,0003.23
2022-02-13 12:05:00,,0830.9,5.00,0.00,22.6,22.8,00.0,31.4,24.5,08.2,0000.0,0006.42,0003.63,0003.21
2022-02-13 12:06:00,,0830.9,5.00,0.00,22.6,22.5,00.0,31.4,24.4,08.2,0000.0,0006.55,0003.62,0003.20
2022-02-13 12:07:00,,0830.9,5.00,0.00,22.6,22.3,00.0,31.4,24.4,08.2,0000.0,0007.78,0003.62,0003.20
2022-02-13 12:08:00,,0830.9,5.00,0.00,22.5,22.2,00.0,31.4,24.3,08.3,0000.0,0007.80,0003.60,0003.19
2022-02-13 12:09:00,,0831.0,5.01,0.00,22.5,22.1,00.0,31.4,24.3,08.3,0000.0,0008.09,0003.60,0003.19
2022-02-13 12:10:00,,0830.9,4.99,0.00,22.5,22.0,00.0,31.4,24.3,08.2,0000.0,0008.48,0003.62,0003.19
2022-02-13 12:11:00,,0830.9,5.01,0.00,22.5,21.9,00.0,31.4,24.3,08.2,0000.0,0008.78,0003.61,0003.18
2022-02-13 12:12:00,,0830.9,4.99,0.00,22.5,21.8,00.0,31.4,24.3,08.2,0000.0,0008.66,0003.58,0003.17
2022-02-13 12:13:00,,0830.9,5.01,0.00,22.5,21.8,00.0,31.4,24.2,08.2,0000.0,0008.65,0003.57,0003.17
2022-02-13 12:14:00,,0830.9,4.98,0.00,22.5,21.7,00.0,31.4,24.2,08.3,0000.0,0008.78,0003.56,0003.17
2022-02-13 12:15:00,,0830.7,5.02,0.00,22.4,21.7,00.0,31.4,24.2,08.3,0000.0,0008.86,0003.57,0003.18
2022-02-13 12:16:00,,0830.7,5.00,0.00,22.4,21.7,00.0,31.4,24.2,08.3,0000.0,0008.91,0003.58,0003.18
2022-02-13 12:17:00,,0830.7,5.00,0.00,22.4,21.7,00.0,31.4,24.2,08.3,0000.0,0008.99,0003.62,0003.19
2022-02-13 12:18:00,,0830.8,5.00,0.00,22.4,21.6,00.0,31.4,24.1,08.3,0000.0,0008.72,0003.65,0003.19
2022-02-13 12:19:00,,0830.9,5.00,0.00,22.4,21.6,00.0,31.4,24.1,08.3,0000.0,0008.62,0003.68,0003.20
2022-02-13 12:20:00,,0830.9,5.00,0.00,22.4,21.6,00.0,31.4,24.1,08.3,0000.0,0008.39,0003.68,0003.20
2022-02-13 12:21:00,,0830.9,4.99,0.00,22.4,21.6,00.0,31.4,24.1,08.3,0000.0,0008.11,0003.70,0003.20
2022-02-13 12:22:00,,0830.9,5.01,0.00,22.4,21.5,00.0,31.3,24.1,08.3,0000.0,0007.79,0003.72,0003.20
2022-02-13 12:23:00,,0830.9,5.00,0.00,22.3,21.5,00.0,31.3,24.1,08.3,0000.0,0008.87,0003.76,0003.21
2022-02-13 12:24:00,,0830.9,5.00,0.00,22.3,21.5,00.0,31.3,24.1,08.4,0000.0,0009.67,0003.81,0003.21
2022-02-13 12:25:00,,0830.9,5.00,0.00,22.3,21.4,00.0,31.3,24.0,08.4,0000.0,0009.91,0003.81,0003.22
2022-02-13 12:26:00,,0830.9,5.01,0.00,22.3,21.5,00.0,31.3,24.0,08.4,0000.0,0009.88,0003.80,0003.20
2022-02-13 12:27:00,,0830.9,5.01,0.00,22.4,22.0,00.0,31.3,24.1,08.4,0000.0,0010.05,0003.79,0003.19
2022-02-13 12:28:00,,0830.9,4.99,0.00,22.5,22.7,00.0,31.4,24.4,08.4,0000.0,0010.21,0003.79,0003.18
2022-02-13 12:29:00,,0830.9,4.99,0.00,22.6,23.1,00.0,31.4,24.5,08.3,0000.0,0009.93,0003.75,0003.17
2022-02-13 12:30:00,,0830.9,4.99,0.00,22.6,22.9,00.0,31.4,24.6,08.3,0000.0,0009.82,0003.75,0003.16
2022-02-13 12:31:00,,0830.8,5.01,0.00,22.6,22.7,00.0,31.4,24.5,08.3,0000.0,0009.89,0003.75,0003.15
2022-02-13 12:32:00,,0830.8,5.00,0.00,22.6,22.5,00.0,31.4,24.4,08.3,0000.0,0010.79,0003.76,0003.13
2022-02-13 12:33:00,,0830.8,4.99,0.00,22.6,22.3,00.0,31.4,24.4,08.3,0000.0,0011.38,0003.71,0003.11
2022-02-13 12:34:00,,0830.8,5.02,0.00,22.6,22.2,00.0,31.5,24.3,08.4,0000.0,0010.99,0003.67,0003.06
2022-02-13 12:35:00,,0830.8,4.99,0.00,22.5,22.1,00.0,31.4,24.3,08.4,0000.0,0010.04,0003.62,0003.03
2022-02-13 12:36:00,,0830.9,4.99,0.00,22.5,22.0,00.0,31.4,24.2,08.4,0000.0,0009.72,0003.61,0003.01
2022-02-13 12:37:00,,0830.9,5.01,0.00,22.5,21.9,00.0,31.4,24.2,08.4,0000.0,0009.71,0003.60,0002.99
2022-02-13 12:38:00,,0830.7,4.99,0.00,22.4,21.7,00.0,31.4,24.0,08.3,0000.0,0010.02,0003.60,0003.02
2022-02-13 12:39:00,,0830.7,5.01,0.00,22.3,21.6,00.0,31.4,23.9,08.4,0000.0,0009.90,0003.56,0003.02
2022-02-13 12:40:00,,0830.8,4.99,0.00,22.3,21.5,00.0,31.4,23.9,08.4,0000.0,0010.53,0003.57,0003.01
2022-02-13 12:41:00,,0830.9,5.00,0.00,22.2,21.4,00.0,31.4,23.9,08.4,0000.0,0010.43,0003.54,0003.02
2022-02-13 12:42:00,,0830.9,4.99,0.00,22.2,21.4,00.0,31.3,23.9,08.4,0000.0,0010.37,0003.53,0003.02
2022-02-13 12:43:00,,0831.0,5.01,0.00,22.2,21.4,00.0,31.3,23.8,08.5,0000.0,0009.31,0003.47,0003.02
2022-02-13 12:44:00,,0831.0,4.98,0.00,22.2,21.4,00.0,31.3,23.8,08.5,0000.0,0008.70,0003.48,0003.03
2022-02-13 12:45:00,,0830.9,5.01,0.00,22.1,21.4,00.0,31.3,23.8,08.6,0000.0,0008.29,0003.48,0003.07
2022-02-13 12:46:00,,0830.9,4.99,0.00,22.1,21.3,00.0,31.3,23.8,08.4,0000.0,0008.24,0003.45,0003.04
2022-02-13 12:47:00,,0830.9,5.01,0.00,22.1,21.5,00.0,31.3,23.8,08.3,0000.0,0008.11,0003.40,0002.99
2022-02-13 12:48:00,,0831.0,5.00,0.00,22.2,22.1,00.0,31.3,24.0,08.2,0000.0,0007.89,0003.37,0002.93
2022-02-13 12:49:00,,0831.0,4.99,0.00,22.3,22.8,00.0,31.3,24.2,08.1,0000.0,0007.08,0003.31,0002.84
2022-02-13 12:50:00,,0831.0,5.00,0.00,22.4,23.0,00.0,31.3,24.4,08.4,0000.0,0007.04,0003.31,0002.83
2022-02-13 12:51:00,,0831.0,5.00,0.00,22.5,22.7,00.0,31.3,24.4,08.4,0000.0,0005.61,0003.28,0002.81
2022-02-13 12:52:00,,0830.9,5.01,0.00,22.5,22.5,00.0,31.3,24.3,08.3,0000.0,0005.46,0003.26,0002.75
2022-02-13 12:53:00,,0830.9,5.00,0.00,22.4,22.3,00.0,31.3,24.3,08.4,0000.0,0005.32,0003.23,0002.70
2022-02-13 12:54:00,,0831.0,5.00,0.00,22.4,22.2,00.0,31.4,24.2,08.5,0000.0,0005.17,0003.21,0002.68
2022-02-13 12:55:00,,0831.0,5.00,0.00,22.4,22.0,00.0,31.3,24.1,08.6,0000.0,0005.05,0003.19,0002.64
2022-02-13 12:56:00,,0831.0,5.01,0.00,22.3,21.9,00.0,31.3,24.0,08.4,0000.0,0005.12,0003.17,0002.56
2022-02-13 12:57:00,,0831.0,4.98,0.00,22.3,21.7,00.0,31.3,24.0,08.3,0000.0,0004.94,0003.15,0002.54
2022-02-13 12:58:00,,0831.0,5.01,0.00,22.3,21.6,00.0,31.3,24.0,08.2,0000.0,0004.85,0003.14,0002.53
2022-02-13 12:59:00,,0831.0,5.00,0.00,22.3,21.6,00.0,31.3,23.9,08.2,0000.0,0004.75,0003.11,0002.52
